Date String (YYYY-MM-DD hh:mm:ss) UTC,Instrument flags,absolute air pressure of the measurement (hPa),sample flow rate (lpm),inlet stack bypass flow (lpm),air temperature of the measurement (°C),ambient temperature measured by the external sensor (°C),aerosol sample conditioner tube jacket temperature (°C),OPC LED temperature (°C),internal box temperature (°C),relative humidity of the measurement (%),span deviation,mass concentration of particles derived from Lorenz-Mie calculation of OPC scattering (μg/m³),mass concentration of particles derived from Lorenz-Mie calculation of OPC scattering (μg/m³),mass concentration of particles derived from Lorenz-Mie calculation of OPC scattering (μg/m³)
DateTimeUTC,F1_M11,P_M11,Q1_M11,Q2_M11,T1_M11,T2_M11,T3_M11,T4_M11,T5_M11,U1_M11,ZSPAN_M11,X2_M11,X0_M11,X1_M11
2024-05-18 04:00:00,SystemResetWarning,0823.5,5.00,000.00,024.3,023.7,000.0,032.3,026.2,019.4,0000.0,0002.80,0006.54,0001.85
2024-05-18 04:01:00,SystemResetWarning,0823.5,5.01,000.00,024.4,023.8,000.0,032.3,026.3,019.3,0000.0,0002.83,0005.59,0001.85
2024-05-18 04:02:00,SystemResetWarning,0823.5,5.00,000.00,024.4,024.0,000.0,032.3,026.4,019.3,0000.0,0002.91,0005.13,0001.88
2024-05-18 04:03:00,SystemResetWarning,0823.5,4.99,000.00,024.5,024.1,000.0,032.4,026.4,019.3,0000.0,0002.88,0004.96,0001.89
2024-05-18 04:04:00,SystemResetWarning,0823.6,4.98,000.00,024.6,023.8,000.0,032.4,026.3,019.2,0000.0,0002.78,0004.76,0001.87
2024-05-18 04:05:00,SystemResetWarning,0823.5,5.01,000.00,024.3,022.0,000.0,032.5,025.3,019.6,0000.0,0002.70,0004.60,0001.87
2024-05-18 04:06:00,SystemResetWarning,0823.5,5.01,000.00,024.0,021.6,000.0,032.5,025.1,019.8,0000.0,0002.69,0004.56,0001.86
2024-05-18 04:07:00,SystemResetWarning,0823.5,5.01,000.00,024.0,021.9,000.0,032.4,025.2,019.2,0000.0,0002.67,0004.48,0001.86
2024-05-18 04:08:00,SystemResetWarning,0823.5,4.98,000.00,024.0,022.2,000.0,032.4,025.4,019.3,0000.0,0002.70,0004.54,0001.86
2024-05-18 04:09:00,SystemResetWarning,0823.6,5.00,000.00,024.0,022.6,000.0,032.3,025.6,019.2,0000.0,0002.69,0004.59,0001.85
2024-05-18 04:10:00,SystemResetWarning,0823.7,5.00,000.00,024.1,022.9,000.0,032.3,025.7,019.7,0000.0,0002.70,0004.73,0001.84
2024-05-18 04:11:00,SystemResetWarning,0823.7,5.01,000.00,024.1,023.1,000.0,032.3,025.9,019.5,0000.0,0002.72,0004.89,0001.86
2024-05-18 04:12:00,SystemResetWarning,0823.7,5.00,000.00,024.2,023.3,000.0,032.3,026.0,019.6,0000.0,0002.74,0004.97,0001.87
2024-05-18 04:13:00,SystemResetWarning,0823.7,5.00,000.00,024.3,023.5,000.0,032.3,026.1,019.5,0000.0,0002.74,0006.12,0001.87
2024-05-18 04:14:00,SystemResetWarning,0823.8,5.00,000.00,024.3,023.7,000.0,032.3,026.2,019.3,0000.0,0002.78,0007.28,0001.88
2024-05-18 04:15:00,SystemResetWarning,0823.8,4.98,000.00,024.4,023.8,000.0,032.3,026.3,019.1,0000.0,0002.84,0007.61,0001.90
2024-05-18 04:16:00,SystemResetWarning,0823.8,4.99,000.00,024.5,024.0,000.0,032.4,026.4,019.2,0000.0,0002.90,0007.68,0001.91
2024-05-18 04:17:00,SystemResetWarning,0823.7,5.01,000.00,024.5,024.1,000.0,032.4,026.5,019.2,0000.0,0002.95,0007.75,0001.92
2024-05-18 04:18:00,SystemResetWarning,0823.8,5.01,000.00,024.6,024.1,000.0,032.4,026.5,019.2,0000.0,0002.97,0008.03,0001.92
2024-05-18 04:19:00,SystemResetWarning,0823.7,4.99,000.00,024.5,022.7,000.0,032.5,025.7,019.2,0000.0,0002.93,0008.53,0001.91
2024-05-18 04:20:00,SystemResetWarning,0823.7,5.02,000.00,024.1,021.5,000.0,032.6,025.0,019.4,0000.0,0002.93,0008.67,0001.91
2024-05-18 04:21:00,SystemResetWarning,0823.7,5.01,000.00,024.0,021.8,000.0,032.6,025.1,019.8,0000.0,0002.90,0008.58,0001.93
2024-05-18 04:22:00,SystemResetWarning,0823.7,5.00,000.00,024.0,022.1,000.0,032.4,025.3,019.8,0000.0,0002.83,0008.36,0001.92
2024-05-18 04:23:00,SystemResetWarning,0823.7,4.99,000.00,024.0,022.4,000.0,032.4,025.5,019.6,0000.0,0002.80,0008.29,0001.91
2024-05-18 04:24:00,SystemResetWarning,0823.7,5.00,000.00,024.1,022.7,000.0,032.3,025.7,019.6,0000.0,0002.73,0008.19,0001.91
2024-05-18 04:25:00,SystemResetWarning,0823.7,5.00,000.00,024.1,023.0,000.0,032.3,025.8,019.3,0000.0,0002.70,0007.50,0001.90
2024-05-18 04:26:00,SystemResetWarning,0823.7,5.01,000.00,024.2,023.3,000.0,032.3,026.0,019.4,0000.0,0002.67,0007.21,0001.90
2024-05-18 04:27:00,SystemResetWarning,0823.7,5.01,000.00,024.3,023.5,000.0,032.3,026.1,019.5,0000.0,0002.68,0008.20,0001.91
2024-05-18 04:28:00,SystemResetWarning,0823.7,4.99,000.00,024.3,023.6,000.0,032.3,026.2,019.5,0000.0,0002.73,0008.99,0001.93
2024-05-18 04:29:00,SystemResetWarning,0823.7,5.00,000.00,024.4,023.8,000.0,032.4,026.3,019.6,0000.0,0002.70,0008.80,0001.94
2024-05-18 04:30:00,SystemResetWarning,0823.7,4.99,000.00,024.5,023.9,000.0,032.4,026.4,019.6,0000.0,0002.66,0008.63,0001.96
2024-05-18 04:31:00,SystemResetWarning,0823.8,4.99,000.00,024.5,024.0,000.0,032.4,026.5,019.6,0000.0,0002.70,0009.06,0001.96
2024-05-18 04:32:00,SystemResetWarning,0823.7,5.00,000.00,024.6,024.2,000.0,032.5,026.5,019.4,0000.0,0002.75,0009.12,0001.96
2024-05-18 04:33:00,SystemResetWarning,0823.7,5.00,000.00,024.6,023.5,000.0,032.6,026.1,019.5,0000.0,0002.76,0009.30,0001.96
2024-05-18 04:34:00,SystemResetWarning,0823.6,5.00,000.00,024.2,021.7,000.0,032.6,025.1,019.8,0000.0,0002.79,0009.89,0001.96
2024-05-18 04:35:00,SystemResetWarning,0823.5,5.01,000.00,024.0,021.6,000.0,032.6,025.0,019.9,0000.0,0002.80,0009.76,0001.97
2024-05-18 04:36:00,SystemResetWarning,0823.5,5.01,000.00,023.9,021.9,000.0,032.5,025.1,019.8,0000.0,0002.78,0009.62,0001.96
2024-05-18 04:37:00,SystemResetWarning,0823.5,4.98,000.00,024.0,022.3,000.0,032.4,025.4,019.8,0000.0,0002.87,0009.90,0001.96
2024-05-18 04:38:00,SystemResetWarning,0823.5,5.00,000.00,024.0,022.6,000.0,032.4,025.6,019.2,0000.0,0002.90,0009.22,0001.97
2024-05-18 04:39:00,SystemResetWarning,0823.6,5.00,000.00,024.1,022.9,000.0,032.3,025.7,018.5,0000.0,0002.81,0008.54,0001.96
2024-05-18 04:40:00,SystemResetWarning,0823.6,5.02,000.00,024.1,023.1,000.0,032.3,025.9,019.1,0000.0,0002.85,0008.45,0001.97
2024-05-18 04:41:00,SystemResetWarning,0823.5,5.00,000.00,024.2,023.4,000.0,032.3,026.0,020.2,0000.0,0002.88,0008.31,0001.97
2024-05-18 04:42:00,SystemResetWarning,0823.6,5.00,000.00,024.3,023.5,000.0,032.3,026.1,019.9,0000.0,0002.88,0007.64,0001.99
2024-05-18 04:43:00,SystemResetWarning,0823.6,5.00,000.00,024.4,023.7,000.0,032.4,026.2,019.5,0000.0,0002.91,0008.10,0002.01
2024-05-18 04:44:00,SystemResetWarning,0823.6,5.01,000.00,024.4,023.8,000.0,032.4,026.3,019.4,0000.0,0002.96,0008.19,0002.02
2024-05-18 04:45:00,SystemResetWarning,0823.5,5.00,000.00,024.5,024.0,000.0,032.4,026.4,019.3,0000.0,0002.98,0007.94,0002.03
2024-05-18 04:46:00,SystemResetWarning,0823.6,5.00,000.00,024.6,024.1,000.0,032.5,026.5,018.9,0000.0,0002.99,0008.10,0002.03
2024-05-18 04:47:00,SystemResetWarning,0823.6,5.00,000.00,024.6,024.2,000.0,032.5,026.5,018.9,0000.0,0003.08,0008.74,0002.05
2024-05-18 04:48:00,SystemResetWarning,0823.6,5.00,000.00,024.7,024.1,000.0,032.5,026.5,018.5,0000.0,0003.11,0008.71,0002.05
2024-05-18 04:49:00,SystemResetWarning,0823.5,4.98,000.00,024.5,022.4,000.0,032.6,025.4,018.3,0000.0,0003.11,0008.58,0002.05
2024-05-18 04:50:00,SystemResetWarning,0823.5,5.02,000.00,024.1,021.5,000.0,032.7,024.9,019.0,0000.0,0003.15,0008.76,0002.04
2024-05-18 04:51:00,SystemResetWarning,0823.5,5.00,000.00,024.0,021.7,000.0,032.6,025.0,019.3,0000.0,0003.15,0008.59,0002.03
2024-05-18 04:52:00,SystemResetWarning,0823.5,5.00,000.00,024.0,022.1,000.0,032.5,025.2,019.5,0000.0,0003.17,0008.67,0002.03
2024-05-18 04:53:00,SystemResetWarning,0823.5,5.00,000.00,024.0,022.4,000.0,032.4,025.5,019.6,0000.0,0003.19,0008.81,0002.02
2024-05-18 04:54:00,SystemResetWarning,0823.5,5.00,000.00,024.1,022.7,000.0,032.4,025.6,019.8,0000.0,0003.18,0008.95,0002.02
2024-05-18 04:55:00,SystemResetWarning,0823.5,4.99,000.00,024.1,023.0,000.0,032.3,025.9,019.9,0000.0,0003.16,0009.35,0002.03
2024-05-18 04:56:00,SystemResetWarning,0823.6,5.00,000.00,024.2,023.2,000.0,032.3,026.0,020.0,0000.0,0003.17,0009.09,0002.03
2024-05-18 04:57:00,SystemResetWarning,0823.6,5.00,000.00,024.2,023.4,000.0,032.3,026.1,019.4,0000.0,0003.19,0008.80,0002.05
2024-05-18 04:58:00,SystemResetWarning,0823.7,5.00,000.00,024.3,023.6,000.0,032.4,026.2,019.2,0000.0,0003.17,0007.95,0002.06
2024-05-18 04:59:00,SystemResetWarning,0823.7,5.00,000.00,024.4,023.7,000.0,032.4,026.3,019.3,0000.0,0003.19,0008.23,0002.07
